Weather observations for the past three days for
CARRINGTON
Metric (Imperial)
Date Time (cdt) Wind (kph) Vis. (km) Weather Sky Cond. Temperature (ºC) Relative Humidity Wind Chill (°C) Heat Index (°C) Pressure Precipitation (cm)
Air Dwpt 6 hour altimeter (cm) sea level (mb) 1 hr 3 hr 6 hr
Max. Min.
04 20:55 Calm 16.09 Overcast OVC001 6 -6 42% 75.59 0.0
04 20:35 Calm 16.09 Overcast OVC001 6 -6 42% 75.59 0.0
04 20:15 Calm 16.09 Overcast OVC001 6 -6 42% 75.57 0.0
04 19:55 Calm 16.09 Overcast OVC001 7 -6 39% 75.57 0.0
04 19:35 Calm 16.09 Overcast OVC001 7 -7 37% 75.54 0.0
04 19:15 Calm 16.09 Overcast OVC001 7 -7 37% 75.54 0.0
04 18:55 Calm 16.09 Overcast OVC001 8 -7 34% 75.54 0.0
04 18:35 Calm 16.09 Overcast OVC001 8 -7 34% 75.51 0.0
04 18:15 Calm 16.09 Overcast OVC001 8 -7 34% 75.51 0.0
04 17:55 Calm 16.09 Overcast OVC001 8 -7 34% 75.49 0.0
04 17:35 Calm 16.09 Overcast OVC001 8 -7 34% 75.49 0.0
04 17:15 Calm 16.09 Overcast OVC001 8 -7 34% 75.49 0.0
04 16:55 Calm 16.09 Overcast OVC001 8 -5 40% 75.46 0.0
04 16:35 Calm 16.09 Overcast OVC001 8 -5 40% 75.46 0.0
04 16:15 Calm 16.09 Overcast OVC001 8 -4 43% 75.46 0.0
04 15:55 Calm 16.09 Overcast OVC001 8 -4 43% 75.46 0.0
04 15:35 Calm 16.09 Overcast OVC001 8 -4 43% 75.46 0.0
04 15:15 Calm 16.09 Overcast OVC001 8 -4 43% 75.46 0.0
04 14:55 Calm 16.09 Overcast OVC001 9 -3 43% 75.44 0.0
04 14:35 Calm 16.09 Overcast OVC001 8 -3 46% 75.44 0.0
04 14:15 Calm 16.09 NULL NULL 7 -4 46% 75.44 0.0
04 13:55 Calm 16.09 NULL NULL 8 -4 43% 75.44 0.0
04 13:35 Calm 16.09 NULL NULL 8 -3 46% 75.41 0.0
04 13:15 Calm 16.09 NULL NULL 7 -4 46% 75.41 0.0
04 12:55 Calm 16.09 Overcast OVC001 7 -4 46% 75.41 0.0
04 12:35 Calm 16.09 Overcast OVC001 5 -2 61% 75.44 0.0
04 12:15 Calm 16.09 Overcast OVC001 6 -4 49% 75.41 0.0
04 11:55 Calm 16.09 Overcast OVC001 7 -4 46% 75.41 0.0
04 11:35 Calm 16.09 Overcast OVC001 6 -5 46% 75.41 0.0
04 11:15 Calm 16.09 Overcast OVC001 6 -5 46% 75.41 0.0
04 10:55 Calm 16.09 Overcast OVC001 6 -5 46% 75.39 0.0
04 10:35 Calm 16.09 Overcast OVC001 6 -6 42% 75.39 0.0
04 10:15 Calm 14.48 Overcast OVC001 6 -6 42% 75.39 0.0
04 09:55 Calm 14.48 Overcast OVC001 5 -5 49% 75.36 0.0
04 09:35 Calm 16.09 Overcast OVC001 5 -3 57% 75.36 0.0
04 09:15 Calm 16.09 Overcast OVC001 5 -3 57% 75.34 0.0
04 08:55 Calm 16.09 Overcast OVC001 5 -3 57% 75.31 0.0
04 08:35 Calm 16.09 Overcast OVC001 5 -2 61% 75.29 0.0
04 08:15 Calm 16.09 Overcast OVC001 5 -2 61% 75.29 0.0
04 07:55 Calm 16.09 Overcast OVC001 4 -1 70% 75.26 0.0
04 07:35 Calm 16.09 Overcast OVC001 4 -1 70% 75.23 0.0
04 07:15 Calm 16.09 Overcast OVC001 4 -1 70% 75.21 0.0
04 06:55 Calm 0.24 Overcast with Haze OVC001 4 -1 70% 75.18 0.0
04 06:35 Calm 0.24 Overcast with Haze OVC001 4 -1 70% 75.16 0.0
04 06:15 Calm 16.09 Overcast OVC001 4 -1 70% 75.13 0.0
04 05:55 Calm 16.09 Overcast OVC001 4 0 75% 75.13 0.0
04 05:35 Calm 16.09 Overcast OVC001 4 -1 70% 75.13 0.0
04 05:15 Calm 16.09 Overcast OVC001 4 0 75% 75.11 0.0
04 04:55 Calm 16.09 Overcast OVC001 5 0 70% 75.06 0.0
04 04:35 Calm 16.09 Overcast OVC001 6 0 66% 75.03 0.0
04 04:15 Calm 16.09 Overcast OVC001 7 0 61% 74.98 0.0
04 03:55 Calm 16.09 Overcast OVC001 8 0 57% 74.96 0.0
04 03:35 Calm 16.09 Overcast OVC001 9 1 58% 74.93 0.0
04 03:15 Calm 16.09 Overcast OVC001 9 3 66% 74.9 0.0
04 02:55 Calm 16.09 Overcast OVC001 9 3 66% 74.88 0.0
04 02:35 Calm 16.09 Overcast OVC001 10 3 62% 74.9 0.0
04 02:15 Calm 16.09 Overcast OVC001 10 3 62% 74.88 0.0
04 01:55 Calm 16.09 Overcast OVC001 10 3 62% 74.9 0.0
04 01:35 Calm 16.09 Overcast OVC001 10 3 62% 74.93 0.0
04 01:15 Calm 16.09 Overcast OVC001 10 3 62% 74.96 0.0
04 00:55 Calm 16.09 Overcast OVC001 10 3 62% 74.96 0.0
04 00:35 Calm 16.09 Overcast OVC001 10 3 62% 74.96 0.0
04 00:15 Calm 16.09 Overcast OVC001 10 3 62% 74.93 0.0
03 23:55 Calm 16.09 Overcast OVC001 11 4 62% 74.88 0.0
03 23:35 Calm 11.27 Overcast OVC001 13 4 55% 74.83 0.0
03 23:15 Calm 16.09 Overcast OVC001 15 4 48% 74.68 0.0
03 22:55 Calm 16.09 Overcast OVC001 17 3 39% 74.65 0.0
03 22:35 Calm 16.09 Overcast OVC001 16 3 42% 74.75 0.0
03 22:15 Calm 16.09 Overcast OVC001 17 3 39% 74.68 0.0
03 21:55 Calm 16.09 Overcast OVC001 17 2 37% 74.68 0.0
03 21:35 Calm 16.09 Overcast OVC001 17 2 37% 74.73 0.0
03 21:15 Calm 16.09 Overcast OVC001 17 2 37% 74.73 0.0
03 20:55 Calm 16.09 Overcast OVC001 17 2 37% 74.75 0.0
03 20:35 Calm 16.09 Overcast OVC001 19 1 30% 74.8 0.0
03 20:15 Calm 16.09 Overcast OVC001 20 0 26% 74.83 0.0
03 19:55 Calm 16.09 Overcast OVC001 21 0 25% 74.85 0.0
03 19:35 Calm 16.09 Overcast OVC001 21 0 25% 74.88 0.0
03 19:15 Calm 16.09 Overcast OVC001 22 0 23% 74.93 0.0
03 18:55 Calm 16.09 Overcast OVC001 23 0 22% 74.96 0.0
03 18:35 Calm 16.09 Overcast OVC001 23 0 22% 74.98 0.0
03 18:15 Calm 16.09 Overcast OVC001 22 0 23% 75.01 0.0
03 17:55 Calm 16.09 Overcast OVC001 22 -1 22% 75.03 0.0
03 17:35 Calm 16.09 Overcast OVC001 22 -1 22% 75.06 0.0
03 17:15 Calm 16.09 Overcast OVC001 22 -2 20% 75.11 0.0
03 16:55 Calm 16.09 Overcast OVC001 22 -2 20% 75.13 0.0
03 16:35 Calm 12.87 Overcast OVC001 22 -2 20% 75.16 0.0
03 16:15 Calm 14.48 Overcast OVC001 22 -1 22% 75.21 0.0
03 15:55 Calm 16.09 Overcast OVC001 22 -1 22% 75.26 0.0
03 15:35 Calm 16.09 Overcast OVC001 22 -1 22% 75.29 0.0
03 15:15 Calm 16.09 Overcast OVC001 22 -1 22% 75.34 0.0
03 14:55 Calm 16.09 Overcast OVC001 22 0 23% 75.36 0.0
03 14:35 Calm 16.09 Overcast OVC001 22 -1 22% 75.39 0.0
03 13:55 Calm 16.09 Overcast OVC001 21 0 25% 75.46 0.0
03 13:35 Calm 16.09 Overcast OVC001 21 0 25% 75.51 0.0
03 13:15 Calm 16.09 Overcast OVC001 20 0 26% 75.57 0.0
03 12:55 Calm 16.09 Overcast OVC001 20 0 26% 75.59 0.0
03 12:35 Calm 16.09 Overcast OVC001 19 0 28% 75.64 0.0
03 12:15 Calm 16.09 Overcast OVC001 19 0 28% 75.67 0.0
03 11:55 Calm 16.09 Overcast OVC001 18 1 32% 75.72 0.0
03 11:35 Calm 16.09 Overcast OVC001 18 0 30% 75.74 0.0
03 11:15 Calm 16.09 Overcast OVC001 17 0 32% 75.74 0.0
03 10:55 Calm 16.09 Overcast OVC001 16 0 34% 75.77 0.0
03 10:35 Calm 16.09 Overcast OVC001 15 1 39% 75.82 0.0
03 10:15 Calm 16.09 Overcast OVC001 14 1 41% 75.82 0.0
03 09:55 Calm 16.09 Overcast OVC001 13 1 44% 75.82 0.0
03 09:35 Calm 16.09 Overcast OVC001 12 1 47% 75.84 0.0
03 09:15 Calm 16.09 Overcast OVC001 11 2 54% 75.87 0.0
03 08:55 Calm 16.09 Overcast OVC001 10 2 58% 75.9 0.0
03 08:35 Calm 16.09 Overcast OVC001 8 2 66% 75.9 0.0
03 08:15 Calm 16.09 Overcast OVC001 7 2 71% 75.9 0.0
03 07:55 Calm 16.09 Overcast OVC001 6 2 76% 75.9 0.0
03 07:35 Calm 16.09 Overcast OVC001 4 2 87% 75.9 0.0
03 07:15 Calm 16.09 Overcast OVC001 3 2 93% 75.9 0.0
03 06:55 Calm 1.21 Fog/Mist OVC001 2 2 100% 75.9 0.0
03 06:35 Calm 1.21 Fog/Mist OVC001 1 1 100% 75.9 0.0
03 06:15 Calm 16.09 Overcast OVC001 1 1 100% 75.87 0.0
03 05:55 Calm 16.09 Overcast OVC001 1 1 100% 75.87 0.0
03 05:35 Calm 16.09 Overcast OVC001 1 1 100% 75.87 0.0
03 05:15 Calm 16.09 Overcast OVC001 2 1 93% 75.9 0.0
03 04:55 Calm 16.09 Overcast OVC001 2 2 100% 75.9 0.0
03 04:35 Calm 16.09 Overcast OVC001 3 2 93% 75.87 0.0
03 04:15 Calm 16.09 Overcast OVC001 3 3 100% 75.87 0.0
03 03:55 Calm 16.09 Overcast OVC001 4 3 93% 75.87 0.0
03 03:35 Calm 16.09 Overcast OVC001 4 4 100% 75.9 0.0
03 03:15 Calm 16.09 Overcast OVC001 4 3 93% 75.9 0.0
03 02:55 Calm 16.09 Overcast OVC001 5 3 87% 75.87 0.0
03 02:35 Calm 16.09 Overcast OVC001 6 2 76% 75.87 0.0
03 02:15 Calm 16.09 Overcast OVC001 6 3 81% 75.87 0.0
03 01:55 Calm 16.09 Overcast OVC001 6 2 76% 75.87 0.0
03 01:35 Calm 16.09 Overcast OVC001 7 3 76% 75.87 0.0
03 01:15 Calm 16.09 NULL NULL 7 3 76% 75.87 0.0
03 00:55 Calm 16.09 Overcast OVC001 7 3 76% 75.87 0.0
03 00:35 Calm 16.09 Overcast OVC001 7 2 71% 75.82 0.0
03 00:15 Calm 16.09 Overcast OVC001 8 2 66% 75.82 0.0
02 23:55 Calm 16.09 Overcast OVC001 9 2 62% 75.82 0.0
02 23:35 Calm 16.09 Overcast OVC001 10 2 58% 75.79 0.0
02 23:15 Calm 16.09 Overcast OVC001 9 2 62% 75.79 0.0
02 22:55 Calm 16.09 Overcast OVC001 10 3 62% 75.79 0.0
02 22:35 Calm 16.09 Overcast OVC001 10 3 62% 75.79 0.0
02 22:15 Calm 16.09 Overcast OVC001 12 3 54% 75.77 0.0
02 21:55 Calm 16.09 Overcast OVC001 12 3 54% 75.74 0.0
02 21:35 Calm 16.09 Overcast OVC001 14 3 48% 75.72 0.0
02 21:15 Calm 16.09 Overcast OVC001 14 3 48% 75.69 0.0
02 20:55 Calm 16.09 Overcast OVC001 15 3 45% 75.67 0.0
02 20:35 Calm 16.09 Overcast OVC001 16 2 39% 75.64 0.0
02 20:15 Calm 16.09 Overcast OVC001 17 2 37% 75.62 0.0
02 19:55 Calm 16.09 Overcast OVC001 19 1 30% 75.57 0.0
02 19:35 Calm 16.09 Overcast OVC001 19 1 30% 75.54 0.0
02 19:15 Calm 16.09 Overcast OVC001 20 1 28% 75.51 0.0
02 18:55 Calm 16.09 Overcast OVC001 21 2 29% 75.51 0.0
02 18:35 Calm 16.09 Overcast OVC001 21 2 29% 75.51 0.0
02 18:15 Calm 16.09 Overcast OVC001 21 2 29% 75.49 0.0
02 17:55 Calm 16.09 Overcast OVC001 21 4 33% 75.49 0.0
02 17:35 Calm 16.09 Overcast OVC001 21 2 29% 75.49 0.0
02 17:15 Calm 16.09 Overcast OVC001 21 2 29% 75.49 0.0
02 16:55 Calm 16.09 Overcast OVC001 22 0 23% 75.49 0.0
02 16:35 Calm 16.09 Overcast OVC001 21 1 27% 75.49 0.0
02 16:15 Calm 16.09 Overcast OVC001 21 1 27% 75.51 0.0
02 15:55 Calm 16.09 Overcast OVC001 21 -1 23% 75.51 0.0
02 15:35 Calm 16.09 Overcast OVC001 22 -2 20% 75.54 0.0
02 15:15 Calm 14.48 Overcast OVC001 22 0 23% 75.57 0.0
02 14:55 Calm 16.09 Overcast OVC001 21 1 27% 75.59 0.0
02 14:35 Calm 16.09 Overcast OVC001 20 1 28% 75.62 0.0
02 14:15 Calm 16.09 Overcast OVC001 19 1 30% 75.62 0.0
02 13:55 Calm 16.09 Overcast OVC001 18 1 32% 75.64 0.0
02 13:35 Calm 16.09 Overcast OVC001 19 1 30% 75.67 0.0
02 13:15 Calm 16.09 Overcast OVC001 19 1 30% 75.69 0.0
02 12:55 Calm 16.09 Overcast OVC001 19 0 28% 75.67 0.0
02 12:35 Calm 16.09 NULL NULL 19 0 28% 75.72 0.0
02 12:15 Calm 16.09 Overcast OVC001 19 -1 26% 75.74 0.0
02 11:55 Calm 16.09 Overcast OVC001 17 -1 30% 75.77 0.0
02 11:35 Calm 16.09 Overcast OVC001 16 0 34% 75.77 0.0
02 11:15 Calm 16.09 Overcast OVC001 16 0 34% 75.77 0.0
02 10:55 Calm 16.09 Overcast OVC001 14 0 39% 75.77 0.0
02 10:35 Calm 16.09 Overcast OVC001 14 -1 36% 75.79 0.0
02 10:15 Calm 16.09 Overcast OVC001 14 0 39% 75.82 0.0
02 09:55 Calm 16.09 Overcast OVC001 14 0 39% 75.84 0.0
02 09:35 Calm 16.09 Overcast OVC001 13 0 41% 75.9 0.0
02 09:15 Calm 16.09 Overcast OVC001 12 -1 41% 75.9 0.0
02 08:55 Calm 16.09 NULL NULL 11 0 47% 75.95 0.0
02 08:35 Calm 16.09 Overcast OVC001 10 0 50% 75.97 0.0
02 08:15 Calm 16.09 Overcast OVC001 10 0 50% 76 0.0
02 07:55 Calm 16.09 Overcast OVC001 9 0 54% 76 0.0
02 07:35 Calm 16.09 Overcast OVC001 8 0 57% 76 0.0
02 07:15 Calm 16.09 Overcast OVC001 7 0 61% 76 0.0
02 06:55 Calm 4.83 Overcast with Haze OVC001 7 0 61% 76.02 0.0
02 06:35 Calm 16.09 Overcast OVC001 7 0 61% 76.02 0.0
02 06:15 Calm 16.09 Overcast OVC001 7 0 61% 76.02 0.0
02 05:55 Calm 16.09 Overcast OVC001 6 0 66% 76.05 0.0
02 05:35 Calm 16.09 Overcast OVC001 6 0 66% 76.05 0.0
02 05:15 Calm 16.09 Overcast OVC001 6 0 66% 76.07 0.0
02 04:55 Calm 16.09 Overcast OVC001 6 0 66% 76.07 0.0
02 04:35 Calm 16.09 Overcast OVC001 7 0 61% 76.07 0.0
02 04:15 Calm 16.09 Overcast OVC001 6 0 66% 76.05 0.0
02 03:55 Calm 16.09 Overcast OVC001 7 0 61% 76.07 0.0
02 03:35 Calm 16.09 Overcast OVC001 7 0 61% 76.07 0.0
02 03:15 Calm 16.09 Overcast OVC001 7 0 61% 76.1 0.0
02 02:55 Calm 16.09 Overcast OVC001 8 0 57% 76.12 0.0
02 02:35 Calm 16.09 Overcast OVC001 8 0 57% 76.15 0.0
02 02:15 Calm 16.09 Overcast OVC001 8 0 57% 76.15 0.0
02 01:55 Calm 16.09 Overcast OVC001 6 0 66% 76.17 0.0
02 01:35 Calm 16.09 Overcast OVC001 7 0 61% 76.2 0.0
02 01:15 Calm 16.09 Overcast OVC001 6 0 66% 76.23 0.0
02 00:55 Calm 16.09 Overcast OVC001 7 0 61% 76.23 0.0
02 00:35 Calm 16.09 Overcast OVC001 6 0 66% 76.25 0.0
02 00:15 Calm 16.09 Overcast OVC001 7 0 61% 76.25 0.0
01 23:55 Calm 16.09 Overcast OVC001 6 0 66% 76.28 0.0
01 23:35 Calm 16.09 Overcast OVC001 6 1 71% 76.28 0.0
01 23:15 Calm 16.09 Overcast OVC001 6 0 66% 76.28 0.0
01 22:55 Calm 16.09 Overcast OVC001 7 0 61% 76.3 0.0
01 22:35 Calm 16.09 Overcast OVC001 7 0 61% 76.3 0.0
01 22:15 Calm 16.09 Overcast OVC001 7 0 61% 76.3 0.0
01 21:55 Calm 16.09 Overcast OVC001 7 1 66% 76.3 0.0
01 21:35 Calm 16.09 Overcast OVC001 8 1 62% 76.3 0.0
01 21:15 Calm 16.09 Overcast OVC001 9 1 58% 76.28 0.0
Date Time (cdt) Wind (kph) Vis. (km) Weather Sky Cond. Air Dwpt Max. Min. Relative Humidity Wind Chill (°C) Heat Index (°C) altimeter (cm) sea level (mb) 1 hr 3 hr 6 hr
6 hour
Temperature (ºC) Pressure Precipitation (cm)